TITAN 3A DEB (TRUSS), 1000

Orbit data source: Space-Track

TITAN 3A DEB (TRUSS), 1000 is space debris in LEO originally from a launch on Thu, 11 Feb 1965 UTC launched from the Air Force Eastern Test Range (AFETR). Debris objects in space refer to the collection of defunct objects orbiting the Earth. Examples of debris include non-operational satellites, rocket bodies, and fragments generated from explosions, collisions, or faulty payload assembly.

Loading next visibility...
Identifier
1000, 1965-008B
Orbit
LEO
Last TLE update
12 hours ago
Origin
Manufacturer
Martin Marietta
Mission
Spacecraft
Bus & Motor
TRANSTAGE, Unknown motor
Mass
1,950 kg wet, 1,950 kg dry
Launch date (UTC)
1965-02-11 (60 years ago)
Launch vehicle
Unknown
Launch site
Air Force Eastern Test Range (AFETR)
Object type
Payload
Rocket body
Debris
Shape & HBR
Cyl + 2 Nozzle, 4.6 m
Radar Cross Section
14.974 m², Large (>1 m²)

Expand to show TLE details & history

TLE from 12 hours ago
0 TITAN 3A DEB (TRUSS)
1 01000U 65008B   25189.79948335 -.00000002  00000-0 -14255-2 0  9996
2 01000  32.1459  70.1861 0012226 216.8603 143.1054  9.88890718183366
Epoch: 2025-07-08T19:11Z
TLE epoch observation values (Epoch: 2025-07-08T19:11:15.361Z)
Latitude
-0.00001°
Longitude
-144.6172°
Altitude
2,798.391 km
Speed
6.59 km/s
True Right ascension
04h 40m 44s
True Declination
0° 00' 00"
Sunlit
Object was in daylight at epoch
Visualization orbit readout
Latitude
-25.63931°
Longitude
164.7118°
Altitude
2,795.635 km
Speed
6.593 km/s
Apparent Right ascension
03h 17m 24s
Apparent Declination
-39° 12' 54"
Sunlit
Object is in daylight
Visualization observer readout
Local Sidereal Time
19:06:06
Azimuth
108.309° ESE
Elevation
-46.701°
Doppler factor
1
Orbital elements
Apogee altitude
2,804.445 km
Perigee altitude
2,782.019 km
Semi-major axis
9,171.369 km
Eccentricity
0.00122
Inclination
32.1459°
RAAN
70.1861°
Arg. of periapsis
216.8603°
True anomaly
Unknown
Mean anomaly
143.1054°
Eccentric anomaly
Unknown
Mean motion
2.47111 °/min
Orbital period
145.68 mins
BSTAR
-0.0014255
Loading maneuver chart data...
Loading SW <> Apogee altitude chart data...
Loading historical data...
Loading historical data...
Loading historical data...
Loading historical data...
Loading historical data...
Loading historical data...
Loading historical data...
Other satellites on launch #8 in the year 1965 (1965-02-11 UTC)

TITAN 3A DEB (TRUSS) Visibility forecast

Observer location: undefined°, undefined°

Span
Click to sort rows by Start time (UTC) header in descending order
Start Az.
Max El. time (UTC)
Max El. Az.
Max El.
End time (UTC)
End Az.
22 mins2025-07-09 17:03:42.021Z186.705° SSW2025-07-09 17:14:42.021Z140.767° SSE22.064°2025-07-09 17:25:42.021Z95.662° ESE
28 mins2025-07-09 19:37:42.021Z227.469° WSW2025-07-09 19:50:42.021Z162.973° S38.343°2025-07-09 20:05:42.021Z89.36° E
29 mins2025-07-09 22:14:42.021Z257.356° W2025-07-09 22:28:42.021Z181.195° SSW42.303°2025-07-09 22:43:42.021Z104.82° ESE
28 mins2025-07-10 00:52:42.021Z269.763° W2025-07-10 01:05:42.021Z207.949° SW36.887°2025-07-10 01:20:42.021Z135.233° SSE
18 mins2025-07-10 03:33:42.021Z256.916° W2025-07-10 03:42:42.021Z219.469° SW19.013°2025-07-10 03:51:42.021Z182.407° SSW
|